Flag for Germany Weather past 2 weeks in Wittenberge, Mecklenburg-Western Pomerania, Germany

Now
61 °F

Partly sunny.


Feels Like: 61 °F
Forecast: 42 / 49 °F
Wind: 2 mph from Southwest

Location: Marnitz

Current Time: Apr 26, 2015 at 7:55:23 PM

Latest Report: Apr 26, 2015 at 7:00 PM


Visibility: 25 mi

Pressure: 29.65 "Hg

Humidity: 67%

Dew point: 50 °F

Location of WittenbergeLocation

Historic Weather in Wittenberge — Graph

°F

Wittenberge temperature yesterday

Maximum temperature yesterday: 66 °F (at 3:00 PM)
Minimum temperature yesterday: 48 °F (at 3:00 AM)
Average temperature yesterday: 56 °F

Past Weeks' High & Low Weather Summary

 TemperatureHumidityPressure
High71 °F (Apr 15, 3:00 PM)100% (Apr 18, 6:00 AM)30.37 "Hg (Apr 18, 6:00 AM)
Low31 °F (Apr 18, 6:00 AM)25% (Apr 21, 1:00 PM)29.65 "Hg (Apr 26, 6:00 PM)
Average49 °F68%30.09 "Hg
* Reported Apr 11 6:00 PM — Apr 26 6:00 PM, Wittenberge, Weather by CustomWeather, © 2015

Note: Actual official high and low records may vary slightly from our data, if they occured in-between our weather recording intervals... More about our weather records

Advertising

Wittenberge weather history for previous 24 hours

 ConditionsComfort  
Time TempWeatherWind HumidityBarometerVisibility
6:00 PM
Sun, Apr 26
62 °FOvercast.3 mph66%29.65 "Hg28 mi
5:00 PM62 °FScattered clouds.5 mph63%29.66 "Hg25 mi
4:00 PM63 °FPartly sunny.5 mph67%29.67 "Hg22 mi
3:00 PM60 °FOvercast.5 mph73%29.69 "Hg17 mi
2:00 PM58 °FLight rain. Overcast.3 mph79%29.70 "Hg7 mi
1:00 PM57 °FOvercast.2 mph82%29.71 "Hg4 mi
12:00 PM55 °FLight freezing rain. Low clouds.2 mph89%29.73 "Hg2 mi
11:00 AM54 °FLight freezing rain. Overcast.2 mph91%29.74 "Hg2 mi
10:00 AM53 °FFog.2 mph93%29.74 "Hg3 mi
9:00 AM51 °FLow clouds.3 mph95%29.75 "Hg2 mi
8:00 AM50 °FLow clouds.2 mph99%29.75 "Hg1 mi
7:00 AM50 °FFog.2 mph98%29.73 "Hg2 mi
6:00 AM49 °FFog.3 mph97%29.73 "Hg2 mi
5:00 AM50 °FFog.3 mph97%29.73 "Hg2 mi
4:00 AM51 °FFog.5 mph97%29.72 "Hg2 mi
3:00 AM52 °FLow clouds.5 mph96%29.72 "Hg2 mi
2:00 AM52 °FLight freezing rain. Overcast.3 mph94%29.72 "Hg2 mi
1:00 AM52 °FFog.3 mph95%29.72 "Hg2 mi
12:00 AM52 °FFog.3 mph96%29.72 "Hg2 mi
11:00 PM
Sat, Apr 25
53 °FOvercast.3 mph96%29.72 "Hg2 mi
10:00 PM53 °FOvercast.2 mph96%29.72 "Hg2 mi
9:00 PM53 °FOvercast.2 mph95%29.72 "Hg2 mi
8:00 PM53 °FLight rain. Overcast.3 mph95%29.72 "Hg2 mi
7:00 PM56 °FLight rain. Overcast.3 mph92%29.71 "Hg2 mi
Weather by CustomWeather, © 2015

See weather overviewHow to use our weather pages